EN

Hourly Weather Ladarevskie Vyselki

Today, 25 July, Sunday

Time Temperature Precipitation Wind Pressure Humidity
00:00 +18°C° 0 mm 1 mps 743 mmHg 62%
01:00 +18°C° 0 mm 1 mps 743 mmHg 62%
02:00 +18°C° 0 mm 1 mps 744 mmHg 64%
03:00 +18°C° 0 mm 1 mps 744 mmHg 66%
04:00 +18°C° 0 mm 1 mps 744 mmHg 67%
05:00 +16°C° 0 mm 1 mps 744 mmHg 69%
06:00 +19°C° 0 mm 1 mps 744 mmHg 64%
07:00 +21°C° 0 mm 1 mps 745 mmHg 59%
08:00 +23°C° 0 mm 1 mps 745 mmHg 54%
09:00 +24°C° 0 mm 1 mps 745 mmHg 50%
10:00 +25°C° 0 mm 1 mps 745 mmHg 46%
11:00 +26°C° 0 mm 1 mps 745 mmHg 42%
12:00 +26°C° 0 mm 1 mps 745 mmHg 43%
13:00 +26°C° 0 mm 1 mps 745 mmHg 44%
14:00 +26°C° 0 mm 1 mps 745 mmHg 45%
15:00 +26°C° 0 mm 1 mps 745 mmHg 47%
16:00 +26°C° 0 mm 1 mps 745 mmHg 49%
17:00 +25°C° 0 mm 1 mps 745 mmHg 51%
18:00 +24°C° 0 mm 1 mps 745 mmHg 52%
19:00 +23°C° 0 mm 1 mps 746 mmHg 54%
20:00 +22°C° 0 mm 1 mps 746 mmHg 55%
21:00 +20°C° 0 mm 2 mps 746 mmHg 56%
22:00 +20°C° 0 mm 2 mps 746 mmHg 57%
23:00 +19°C° 0 mm 2 mps 746 mmHg 57%

Tomorrow, 26 July, Monday

Time Temperature Precipitation Wind Pressure Humidity
00:00 +19°C° 0 mm 2 mps 746 mmHg 57%
01:00 +19°C° 0 mm 2 mps 746 mmHg 57%
02:00 +19°C° 0 mm 2 mps 747 mmHg 57%
03:00 +20°C° 0 mm 1 mps 747 mmHg 59%
04:00 +19°C° 0 mm 1 mps 747 mmHg 61%
05:00 +19°C° 0 mm 1 mps 747 mmHg 64%
06:00 +20°C° 0 mm 1 mps 747 mmHg 62%
07:00 +20°C° 0 mm 2 mps 747 mmHg 60%
08:00 +21°C° 0 mm 2 mps 748 mmHg 58%
09:00 +23°C° 0 mm 2 mps 748 mmHg 57%
10:00 +23°C° 0 mm 2 mps 748 mmHg 56%
11:00 +24°C° 0 mm 2 mps 748 mmHg 54%
12:00 +25°C° 0 mm 2 mps 748 mmHg 51%
13:00 +26°C° 0 mm 2 mps 748 mmHg 47%
14:00 +27°C° 0 mm 2 mps 747 mmHg 43%
15:00 +27°C° 0 mm 1 mps 747 mmHg 44%
16:00 +27°C° 0 mm 1 mps 747 mmHg 44%
17:00 +27°C° 0 mm 1 mps 747 mmHg 45%
18:00 +25°C° 0 mm 1 mps 747 mmHg 49%
19:00 +24°C° 0 mm 1 mps 747 mmHg 53%
20:00 +21°C° 0 mm 2 mps 747 mmHg 58%
21:00 +20°C° 0 mm 2 mps 747 mmHg 60%
22:00 +19°C° 0 mm 2 mps 747 mmHg 62%
23:00 +19°C° 0 mm 2 mps 747 mmHg 64%

Day after tomorrow, 27 July, Tuesday

Time Temperature Precipitation Wind Pressure Humidity
00:00 +18°C° 0 mm 2 mps 747 mmHg 65%
01:00 +18°C° 0 mm 2 mps 747 mmHg 66%
02:00 +18°C° 0 mm 2 mps 747 mmHg 67%
03:00 +18°C° 0 mm 2 mps 747 mmHg 68%
04:00 +18°C° 0 mm 2 mps 747 mmHg 69%
05:00 +18°C° 0 mm 2 mps 747 mmHg 70%
06:00 +20°C° 0 mm 2 mps 747 mmHg 64%
07:00 +23°C° 0 mm 2 mps 747 mmHg 58%
08:00 +25°C° 0 mm 2 mps 747 mmHg 52%
09:00 +26°C° 0 mm 2 mps 747 mmHg 48%
10:00 +27°C° 0 mm 2 mps 747 mmHg 44%
11:00 +29°C° 0 mm 2 mps 747 mmHg 40%
12:00 +29°C° 0 mm 2 mps 747 mmHg 39%
13:00 +29°C° 0 mm 2 mps 746 mmHg 38%
14:00 +30°C° 0 mm 1 mps 746 mmHg 37%
15:00 +30°C° 0 mm 1 mps 746 mmHg 39%
16:00 +29°C° 0 mm 1 mps 746 mmHg 42%
17:00 +29°C° 0 mm 1 mps 746 mmHg 44%
18:00 +27°C° 0 mm 1 mps 745 mmHg 48%
19:00 +25°C° 0 mm 1 mps 745 mmHg 51%
20:00 +23°C° 0 mm 1 mps 745 mmHg 55%
21:00 +23°C° 0 mm 2 mps 745 mmHg 56%
22:00 +21°C° 0 mm 2 mps 745 mmHg 56%
23:00 +20°C° 0 mm 3 mps 745 mmHg 57%

28 July, Wednesday

Time Temperature Precipitation Wind Pressure Humidity
00:00 +20°C° 0 mm 3 mps 744 mmHg 57%
01:00 +20°C° 0 mm 3 mps 744 mmHg 57%
02:00 +20°C° 0 mm 3 mps 744 mmHg 57%
03:00 +20°C° 0 mm 3 mps 744 mmHg 58%
04:00 +20°C° 0 mm 3 mps 743 mmHg 60%
05:00 +20°C° 0 mm 3 mps 743 mmHg 61%
06:00 +21°C° 0 mm 4 mps 743 mmHg 60%
07:00 +23°C° 0 mm 4 mps 743 mmHg 59%
08:00 +25°C° 0 mm 4 mps 743 mmHg 58%
09:00 +25°C° 0.1 mm 4 mps 742 mmHg 59%
10:00 +25°C° 0.1 mm 3 mps 742 mmHg 61%
11:00 +26°C° 0.1 mm 3 mps 742 mmHg 63%
12:00 +24°C° 0.6 mm 3 mps 742 mmHg 72%
13:00 +22°C° 0.6 mm 3 mps 741 mmHg 80%
14:00 +21°C° 0.6 mm 3 mps 741 mmHg 89%
15:00 +21°C° 0.9 mm 3 mps 741 mmHg 88%
16:00 +21°C° 0.9 mm 3 mps 740 mmHg 88%
17:00 +21°C° 0.9 mm 4 mps 739 mmHg 87%
18:00 +21°C° 0.6 mm 3 mps 739 mmHg 90%
19:00 +20°C° 0.6 mm 3 mps 739 mmHg 92%
20:00 +20°C° 0.6 mm 2 mps 739 mmHg 94%
21:00 +20°C° 0.1 mm 2 mps 739 mmHg 95%
22:00 +19°C° 0.1 mm 3 mps 739 mmHg 95%
23:00 +19°C° 0.1 mm 3 mps 739 mmHg 95%

29 July, Thursday

Time Temperature Precipitation Wind Pressure Humidity
00:00 +19°C° 0 mm 3 mps 739 mmHg 95%
01:00 +19°C° 0 mm 3 mps 739 mmHg 94%
02:00 +18°C° 0 mm 3 mps 739 mmHg 94%
03:00 +18°C° 0 mm 3 mps 739 mmHg 93%
04:00 +18°C° 0 mm 3 mps 739 mmHg 93%
05:00 +18°C° 0 mm 3 mps 739 mmHg 92%
06:00 +20°C° 0 mm 3 mps 739 mmHg 86%
07:00 +22°C° 0 mm 4 mps 739 mmHg 79%
08:00 +23°C° 0 mm 4 mps 739 mmHg 72%
09:00 +26°C° 0 mm 4 mps 739 mmHg 65%
10:00 +27°C° 0 mm 4 mps 739 mmHg 59%
11:00 +28°C° 0 mm 5 mps 739 mmHg 53%
12:00 +28°C° 0 mm 4 mps 739 mmHg 55%
13:00 +27°C° 0 mm 4 mps 739 mmHg 57%
14:00 +27°C° 0 mm 3 mps 739 mmHg 59%
15:00 +27°C° 0 mm 4 mps 739 mmHg 57%
16:00 +28°C° 0 mm 4 mps 739 mmHg 55%
17:00 +28°C° 0 mm 4 mps 738 mmHg 53%
18:00 +26°C° 0 mm 4 mps 739 mmHg 58%
19:00 +25°C° 0 mm 4 mps 739 mmHg 64%
20:00 +22°C° 0 mm 3 mps 739 mmHg 69%
21:00 +21°C° 0 mm 3 mps 739 mmHg 70%
22:00 +21°C° 0 mm 3 mps 739 mmHg 71%
23:00 +20°C° 0 mm 2 mps 739 mmHg 72%

30 July, Friday

Time Temperature Precipitation Wind Pressure Humidity
00:00 +20°C° 0 mm 3 mps 739 mmHg 72%
01:00 +20°C° 0 mm 3 mps 739 mmHg 73%
02:00 +20°C° 0 mm 3 mps 739 mmHg 73%
03:00 +20°C° 0 mm 2 mps 739 mmHg 74%
04:00 +19°C° 0 mm 2 mps 740 mmHg 75%
05:00 +19°C° 0 mm 2 mps 740 mmHg 76%
06:00 +21°C° 0 mm 2 mps 740 mmHg 71%
07:00 +23°C° 0 mm 2 mps 740 mmHg 66%
08:00 +25°C° 0 mm 2 mps 740 mmHg 61%
09:00 +26°C° 0 mm 2 mps 741 mmHg 57%
10:00 +27°C° 0 mm 2 mps 741 mmHg 54%
11:00 +29°C° 0 mm 2 mps 741 mmHg 51%
12:00 +29°C° 0 mm 2 mps 741 mmHg 50%
13:00 +30°C° 0 mm 2 mps 740 mmHg 49%
14:00 +30°C° 0 mm 2 mps 740 mmHg 48%
15:00 +29°C° 0.1 mm 2 mps 740 mmHg 53%
16:00 +29°C° 0.1 mm 2 mps 740 mmHg 58%
17:00 +28°C° 0.1 mm 2 mps 740 mmHg 63%
18:00 +27°C° 0 mm 2 mps 740 mmHg 66%
19:00 +25°C° 0 mm 1 mps 740 mmHg 69%
20:00 +24°C° 0 mm 1 mps 740 mmHg 73%
21:00 +24°C° 0 mm 1 mps 740 mmHg 73%
22:00 +23°C° 0 mm 2 mps 740 mmHg 74%
23:00 +22°C° 0 mm 3 mps 740 mmHg 75%
Show more